EN

Hourly Weather Lachow

Today, 1 August, Sunday

Time Temperature Precipitation Wind Pressure Humidity
00:00 +18°C° 0 mm 2 mps 744 mmHg 60%
01:00 +18°C° 0 mm 2 mps 744 mmHg 61%
02:00 +18°C° 0 mm 2 mps 744 mmHg 63%
03:00 +17°C° 0 mm 2 mps 744 mmHg 64%
04:00 +18°C° 0 mm 1 mps 743 mmHg 66%
05:00 +18°C° 0 mm 1 mps 743 mmHg 65%
06:00 +19°C° 0 mm 1 mps 743 mmHg 64%
07:00 +18°C° 0 mm 0 mps 743 mmHg 63%
08:00 +19°C° 1.7 mm 1 mps 743 mmHg 71%
09:00 +18°C° 1.7 mm 1 mps 743 mmHg 80%
10:00 +17°C° 1.7 mm 2 mps 744 mmHg 88%
11:00 +17°C° 2 mm 2 mps 744 mmHg 89%
12:00 +17°C° 2 mm 2 mps 744 mmHg 90%
13:00 +18°C° 2 mm 1 mps 744 mmHg 91%
14:00 +17°C° 0.1 mm 2 mps 743 mmHg 90%
15:00 +17°C° 0.1 mm 2 mps 743 mmHg 90%
16:00 +17°C° 0.1 mm 2 mps 743 mmHg 89%
17:00 +17°C° 0 mm 2 mps 743 mmHg 90%
18:00 +16°C° 0 mm 2 mps 743 mmHg 91%
19:00 +16°C° 0 mm 1 mps 743 mmHg 92%
20:00 +16°C° 0 mm 2 mps 743 mmHg 92%
21:00 +15°C° 0 mm 2 mps 743 mmHg 91%
22:00 +15°C° 0 mm 2 mps 744 mmHg 90%
23:00 +15°C° 0 mm 2 mps 743 mmHg 90%

Tomorrow, 2 August, Monday

Time Temperature Precipitation Wind Pressure Humidity
00:00 +15°C° 0 mm 2 mps 743 mmHg 89%
01:00 +15°C° 0 mm 2 mps 743 mmHg 88%
02:00 +15°C° 0.1 mm 2 mps 743 mmHg 89%
03:00 +15°C° 0.1 mm 2 mps 743 mmHg 90%
04:00 +15°C° 0.1 mm 2 mps 743 mmHg 92%
05:00 +16°C° 0.1 mm 3 mps 744 mmHg 89%
06:00 +16°C° 0.1 mm 3 mps 744 mmHg 86%
07:00 +17°C° 0.1 mm 3 mps 744 mmHg 84%
08:00 +19°C° 0.4 mm 4 mps 744 mmHg 77%
09:00 +20°C° 0.4 mm 4 mps 745 mmHg 70%
10:00 +21°C° 0.4 mm 5 mps 745 mmHg 64%
11:00 +22°C° 0.4 mm 5 mps 745 mmHg 62%
12:00 +22°C° 0.4 mm 5 mps 745 mmHg 59%
13:00 +22°C° 0.4 mm 6 mps 745 mmHg 57%
14:00 +22°C° 0.3 mm 5 mps 745 mmHg 59%
15:00 +22°C° 0.3 mm 5 mps 746 mmHg 60%
16:00 +21°C° 0.3 mm 4 mps 746 mmHg 61%
17:00 +20°C° 0.1 mm 4 mps 746 mmHg 64%
18:00 +20°C° 0.1 mm 3 mps 746 mmHg 66%
19:00 +19°C° 0.1 mm 3 mps 746 mmHg 69%
20:00 +18°C° 0 mm 3 mps 746 mmHg 71%
21:00 +17°C° 0 mm 3 mps 747 mmHg 74%
22:00 +17°C° 0 mm 3 mps 747 mmHg 76%
23:00 +16°C° 0 mm 3 mps 747 mmHg 80%

Day after tomorrow, 3 August, Tuesday

Time Temperature Precipitation Wind Pressure Humidity
00:00 +14°C° 0 mm 3 mps 747 mmHg 83%
01:00 +14°C° 0 mm 2 mps 748 mmHg 87%
02:00 +14°C° 0 mm 2 mps 748 mmHg 87%
03:00 +14°C° 0 mm 2 mps 748 mmHg 87%
04:00 +14°C° 0 mm 2 mps 748 mmHg 87%
05:00 +15°C° 0 mm 2 mps 748 mmHg 81%
06:00 +16°C° 0 mm 3 mps 748 mmHg 75%
07:00 +17°C° 0 mm 3 mps 748 mmHg 70%
08:00 +19°C° 0 mm 3 mps 749 mmHg 62%
09:00 +20°C° 0 mm 3 mps 749 mmHg 55%
10:00 +23°C° 0 mm 2 mps 749 mmHg 48%
11:00 +24°C° 0 mm 2 mps 748 mmHg 46%
12:00 +25°C° 0 mm 2 mps 748 mmHg 43%
13:00 +25°C° 0 mm 2 mps 748 mmHg 41%
14:00 +25°C° 0 mm 2 mps 747 mmHg 43%
15:00 +25°C° 0 mm 2 mps 747 mmHg 45%
16:00 +25°C° 0 mm 2 mps 747 mmHg 47%
17:00 +24°C° 0 mm 2 mps 747 mmHg 52%
18:00 +23°C° 0 mm 1 mps 747 mmHg 56%
19:00 +22°C° 0 mm 1 mps 747 mmHg 61%
20:00 +21°C° 0.6 mm 1 mps 747 mmHg 68%
21:00 +19°C° 0.6 mm 1 mps 747 mmHg 75%
22:00 +18°C° 0.6 mm 1 mps 747 mmHg 81%
23:00 +17°C° 0.5 mm 2 mps 747 mmHg 83%

4 August, Wednesday

Time Temperature Precipitation Wind Pressure Humidity
00:00 +17°C° 0.5 mm 2 mps 747 mmHg 85%
01:00 +16°C° 0.5 mm 2 mps 747 mmHg 87%
02:00 +16°C° 0 mm 1 mps 747 mmHg 86%
03:00 +16°C° 0 mm 1 mps 747 mmHg 85%
04:00 +16°C° 0 mm 1 mps 747 mmHg 85%
05:00 +18°C° 0 mm 1 mps 747 mmHg 82%
06:00 +19°C° 0 mm 1 mps 747 mmHg 79%
07:00 +19°C° 0 mm 2 mps 747 mmHg 77%
08:00 +19°C° 0 mm 2 mps 747 mmHg 73%
09:00 +20°C° 0 mm 2 mps 747 mmHg 70%
10:00 +21°C° 0 mm 2 mps 747 mmHg 67%
11:00 +21°C° 0 mm 2 mps 747 mmHg 65%
12:00 +21°C° 0 mm 2 mps 747 mmHg 64%
13:00 +22°C° 0 mm 1 mps 747 mmHg 62%
14:00 +21°C° 0.1 mm 2 mps 747 mmHg 63%
15:00 +21°C° 0.1 mm 2 mps 747 mmHg 64%
16:00 +21°C° 0.1 mm 3 mps 746 mmHg 66%
17:00 +21°C° 0 mm 2 mps 746 mmHg 68%
18:00 +20°C° 0 mm 2 mps 746 mmHg 70%
19:00 +19°C° 0 mm 2 mps 746 mmHg 72%
20:00 +19°C° 0 mm 2 mps 747 mmHg 73%
21:00 +18°C° 0 mm 2 mps 747 mmHg 73%
22:00 +17°C° 0 mm 2 mps 747 mmHg 74%
23:00 +17°C° 0 mm 2 mps 747 mmHg 74%

5 August, Thursday

Time Temperature Precipitation Wind Pressure Humidity
00:00 +17°C° 0 mm 2 mps 747 mmHg 74%
01:00 +17°C° 0 mm 2 mps 747 mmHg 74%
02:00 +17°C° 0 mm 2 mps 746 mmHg 76%
03:00 +16°C° 0 mm 2 mps 746 mmHg 79%
04:00 +16°C° 0 mm 2 mps 746 mmHg 81%
05:00 +16°C° 0 mm 2 mps 746 mmHg 79%
06:00 +17°C° 0 mm 2 mps 746 mmHg 78%
07:00 +17°C° 0 mm 3 mps 746 mmHg 76%
08:00 +18°C° 0 mm 3 mps 746 mmHg 71%
09:00 +19°C° 0 mm 3 mps 745 mmHg 66%
10:00 +20°C° 0 mm 3 mps 745 mmHg 61%
11:00 +21°C° 0 mm 3 mps 745 mmHg 57%
12:00 +22°C° 0 mm 3 mps 745 mmHg 53%
13:00 +24°C° 0 mm 3 mps 744 mmHg 48%
14:00 +22°C° 0 mm 3 mps 744 mmHg 51%
15:00 +23°C° 0 mm 2 mps 744 mmHg 53%
16:00 +23°C° 0 mm 2 mps 744 mmHg 56%
17:00 +21°C° 0 mm 2 mps 743 mmHg 58%
18:00 +20°C° 0 mm 2 mps 743 mmHg 61%
19:00 +20°C° 0 mm 2 mps 743 mmHg 64%
20:00 +19°C° 0 mm 2 mps 743 mmHg 68%
21:00 +17°C° 0 mm 2 mps 743 mmHg 72%
22:00 +16°C° 0 mm 2 mps 743 mmHg 75%
23:00 +16°C° 0 mm 2 mps 743 mmHg 78%

6 August, Friday

Time Temperature Precipitation Wind Pressure Humidity
00:00 +15°C° 0 mm 2 mps 743 mmHg 81%
01:00 +15°C° 0 mm 2 mps 743 mmHg 84%
02:00 +15°C° 0 mm 2 mps 743 mmHg 85%
03:00 +14°C° 0 mm 2 mps 743 mmHg 87%
04:00 +13°C° 0 mm 3 mps 743 mmHg 88%
05:00 +14°C° 0 mm 3 mps 743 mmHg 82%
06:00 +16°C° 0 mm 3 mps 743 mmHg 77%
07:00 +17°C° 0 mm 3 mps 743 mmHg 71%
08:00 +19°C° 0 mm 4 mps 743 mmHg 65%
09:00 +21°C° 0 mm 4 mps 743 mmHg 58%
10:00 +22°C° 0 mm 5 mps 743 mmHg 52%
11:00 +22°C° 0.1 mm 4 mps 743 mmHg 52%
12:00 +23°C° 0.1 mm 4 mps 742 mmHg 52%
13:00 +23°C° 0.1 mm 4 mps 742 mmHg 52%
14:00 +23°C° 0 mm 4 mps 742 mmHg 53%
15:00 +23°C° 0 mm 4 mps 742 mmHg 53%
16:00 +23°C° 0 mm 4 mps 742 mmHg 53%
17:00 +22°C° 0.1 mm 3 mps 742 mmHg 59%
18:00 +21°C° 0.1 mm 3 mps 742 mmHg 64%
19:00 +20°C° 0.1 mm 3 mps 742 mmHg 70%
20:00 +19°C° 0 mm 3 mps 742 mmHg 74%
21:00 +18°C° 0 mm 3 mps 742 mmHg 79%
22:00 +17°C° 0 mm 3 mps 743 mmHg 84%
23:00 +17°C° 0 mm 3 mps 743 mmHg 85%
Show more